Location: Audinghen
(50.8518°N, 1.6129°E)
Time: 07:09:00
(UTC+00:00)

GEOS 3 Rocket - Pass Details

Date: 07 August 2020
Orbit: 770 x 849 km, 115.0° (Epoch: 26 September)

Event Time Altitude Azimuth Distance (km) Brightness Sun altitude
Rises 02:12:16 0° 41° (NE) 3,411 8.6 -16.8°
Reaches altitude 10° 02:14:38 10° 37° (NE) 2,478 7.5 -16.6°
Maximum altitude 02:19:52 53° 323° (NW) 1,045 4.3 -16.1°
Enters shadow 02:23:49 17° 252° (WSW) 1,998 5.2 -15.8°
